Regional Weather Roundup
Issued by NWS Pendleton, OR

Home | Current Version | Previous Version | Text Only | Print | Product List | Glossary On
Versions: 1 2 3 4 5 6 7 8 9 10 11 12 13 14 15 16 17 18 19 20 21 22 23 24 25 26 27 28 29 30 31 32 33 34 35 36 37 38 39 40 41 42 43 44 45 46 47 48 49 50
000
ASUS46 KPDT 281325
RWRPDT
PENDLETON REGIONAL WEATHER ROUNDUP
NATIONAL WEATHER SERVICE PENDLETON OREGON
600 AM PDT FRI AUG 28 2015

NOTE: FAIR INDICATES FEW OR NO CLOUDS BELOW 12,000 FEET WITH NO
SIGNIFICANT WEATHER AND/OR OBSTRUCTIONS TO VISIBILITY.

# INDICATES UNOFFICIAL STATION AND DATA

WAZ520-281410-
EAST SLOPES OF WASHINGTON CASCADES

CITY            SKY/WX      TMP DP  RH  WIND    PRES   REMARKS
#BULLFROG 2SW   N/A         62  44  52  CALM    27.60R
#BUMPING DAM    N/A         60  N/A N/A CALM    N/A
#CLE ELUM HS    N/A         65  46  50  CALM    29.91S
#CLE ELUM LAKE  N/A         63  45  52  CALM    29.83R
#CLIFFDEL 2NW   N/A         63  44  50  CALM    N/A
#GLENWOOD       N/A         67  51  56  S5      29.90F
#MANASTASH CYN  N/A         60  47  62  CALM    29.97S
#NELSON         N/A         64  49  58  CALM    29.87S
#NELSON 3SW     N/A         59  46  62  CALM    30.05R
#NILE           N/A         62  49  62  CALM    29.15F
#RONALD 2NW     N/A         64  44  48  CALM    29.88R
#TEANAWAY 4NE   N/A         61  47  60  CALM    N/A
#TROUT LAKE 1NE N/A         62  48  60  W6      29.91F
$$

WAZ521-281410-
SIMCOE HIGHLANDS

CITY            SKY/WX      TMP DP  RH  WIND    PRES   REMARKS
#BICKLETON HS   N/A         67  36  32  W7      N/A
#CENTERVILLE 4W N/A         68  46  45  CALM    29.75S
#CENTERVILLE 1SWN/A         68  46  45  W8      29.86S
#GOLDENDALE     N/A         69  44  40  W6      N/A
#GOLDENDALE 1NE N/A         69  31  24  CALM    N/A
#GOLDENDALE 5WNWN/A         68  47  47  W9      29.89S
#GOODNOE HILLS  N/A         72  47  41  W15     N/A
#LYLE 6NE       N/A         67  48  50  W5      29.89S
$$

WAZ026-281410-
KITTITAS VALLEY

CITY            SKY/WX      TMP DP  RH  WIND    PRES   REMARKS
ELLENSBURG AP   CLOUDY      66  47  50  NE6     29.93F
YTC-OPS AREA    MOCLDY      68  40  36  W10     29.97S
#ELLENSBURG CWU N/A         64  49  58  CALM    29.79F
#ELLENSBURG 3NE N/A         62  50  65  CALM    29.93F
#ELLENSBURG 1E  N/A         61  49  65  CALM    N/A
#KITTITAS 4N    N/A         64  45  50  N1      29.94F
#KITTITAS 3S    N/A         64  50  60  CALM    29.84F
#THORP 6N       N/A         63  44  50  N3      29.85S
$$

WAZ027-281410-
YAKIMA VALLEY

CITY            SKY/WX      TMP DP  RH  WIND    PRES   REMARKS
SUNNYSIDE AP    CLOUDY      62  56  81  CALM    29.91S
YAKIMA AIRPORT  PTCLDY      65  52  63  CALM    29.92S
YAKIMA-VAGABOND MOCLDY      70  43  38  SE3     29.92S
#DONALD 2NE     N/A         73  32  22  W1      28.77R
#GRANDVIEW      N/A         64  54  70  CALM    29.88S
#MABTON         N/A         64  56  75  CALM    29.89F
#MOXEE 2E       N/A         64  40  41  CALM    29.88R
#NACHES 2SW     N/A         68  49  51  CALM    29.94S
#OUTLOOK DOT    N/A         N/A N/A N/A E1      N/A
#SELAH 8E       N/A         64  42  45  SE5     N/A
#TERRACE HTS    N/A         66  50  56  CALM    29.82S
#TOPPENISH      N/A         66  53  63  CALM    29.79R
#WAPATO 4NE     N/A         73  32  22  W1      28.77R
#W YAKIMA       N/A         68  51  55  CALM    29.85R
#WHITE SWAN 5E  N/A         66  53  63  SE5     29.86S
$$

WAZ028-281410-
LOWER COLUMBIA BASIN...WASHINGTON

CITY            SKY/WX      TMP DP  RH  WIND    PRES   REMARKS
HANFORD         CLOUDY      73  42  33  W5      29.86F
PASCO           CLOUDY      66  53  63  E5      29.89R SMOKE
#BENTON CITY    N/A         69  50  51  CALM    29.76S
#CONNELL 5N     N/A         61  42  50  CALM    29.84F
#CONNELL 5NW    N/A         63  52  67  CALM    29.81F
#ELTOPIA 6NW    N/A         66  53  63  CALM    28.86F
#KAHLOTUS       N/A         63  40  43  S5      29.84S
#KENNEWICK      N/A         62  44  52  CALM    27.60R
#KENNEWICK 3S   N/A         72  47  41  N7      29.85R
#PATERSON       N/A         65  52  63  CALM    29.87R
#PROSSER        N/A         72  43  35  CALM    29.85S
#SAGEMOOR 2W    N/A         67  54  63  CALM    29.70S
#TOUCHET 2S     N/A         74  45  35  SW8     29.84F
#WEST PASCO     N/A         64  54  70  E1      29.85R
$$

WAZ029-281410-
FOOTHILLS OF THE BLUES...WASHINGTON

CITY            SKY/WX      TMP DP  RH  WIND    PRES   REMARKS
WALLA WALLA AP  MOCLDY      72  42  34  S9      29.94R
#DAYTON SCHOOL  N/A         61  39  44  CALM    29.95R
#LOWDEN 2SE     N/A         60  51  72  E3      29.87R
#PLEASANT VIEW 1N/A         66  40  38  S8      29.86S
#PRESCOTT       N/A         57  46  67  CALM    29.87R
#SUDBURY        N/A         59  N/A N/A CALM    N/A
#WHITMAN COLLEGEN/A         72  45  38  SE3     29.91R
#WAITSBURG 8N   N/A         66  17  15  S6      29.79R
#WALLA WALLA U  N/A         69  47  45  CALM    29.87R
#WHITMAN MISSIONN/A         61  51  70  CALM    29.89R
$$

WAZ030-281410-
BLUE MOUNTAINS...WASHINGTON

CITY            SKY/WX      TMP DP  RH  WIND    PRES   REMARKS
$$

ORZ009-041-WAZ024-281410-
COLUMBIA RIVER GORGE

CITY            SKY/WX      TMP DP  RH  WIND    PRES   REMARKS
THE DALLES AP   MOCLDY      74  46  37  NW20G28 29.94S
#ARLINGTON AIRPON/A         73  46  38  W15     N/A
#MOSIER 1S      N/A         68  35  29  NW6     29.99S

$$

ORZ510-281410-
NORTH CENTRAL OREGON

CITY            SKY/WX      TMP DP  RH  WIND    PRES   REMARKS
#CHENOWITH 1W   N/A         64  45  50  W22     N/A
#GRASS VALLEY 1SN/A         64  44  48  CALM    29.91F
#MAUPIN SCHOOL  N/A         69  48  47  N1      29.97S
#MORO SCHOOL    N/A         67  50  54  W12     30.00R
#SHANIKO 4NW    N/A         63  41  44  W3      30.07S
#TYGH VALLEY 2NEN/A         64  45  50  CALM    29.91R
#WAPANITIA AIRPON/A         69  47  45  W5      29.91R
#WASCO 5NE      N/A         68  46  45  SW8     29.89S
$$

ORZ511-281410-
CENTRAL OREGON

CITY            SKY/WX      TMP DP  RH  WIND    PRES   REMARKS
BEND AIRPORT    CLOUDY      63  43  48  CALM    30.08S
PRINEVILLE AP   CLOUDY      59  41  51  CALM    30.07R
REDMOND AIRPORT PTCLDY      60  42  51  SE3     30.05F SMOKE
#BEND 1SW       N/A         61  44  53  SW1     N/A
#BEND-AWBREY    N/A         62  45  54  SW6     29.89F
#BEND-KIM LN    N/A         62  47  58  CALM    30.06S
#CULVER         N/A         62  47  58  N1      30.00S
#LAKE BILLY CHINN/A         66  12  12  CALM    30.08S
#MADRAS         N/A         61  44  53  CALM    N/A
#POWELL BUTTE 3EN/A         58  44  60  E1      N/A
#POWELL BUTTE   N/A         62  42  48  SW1     29.70S
#PRINEVILLE 3N  N/A         55  51  86  SE1     29.87S
#WARM SPRINGS   N/A         66  46  48  CALM    29.97F

$$


ORZ509-281410-
EAST SLOPES OF OREGON CASCADES

CITY            SKY/WX      TMP DP  RH  WIND    PRES   REMARKS
#CAMP SHERMAN   N/A         60  41  49  CALM    29.89S
#LA PINE 4NW    N/A         51  40  66  CALM    29.98F
#SISTERS AIRPOR N/A         62  50  65  CALM    30.17S
#SISTERS 3N     N/A         59  42  53  CALM    30.05S
#SUNRIVER       N/A         53  43  69  CALM    29.82F
#TUMALO 3W      N/A         64  43  46  CALM    29.78S

$$

ORZ044-281410-
LOWER COLUMBIA BASIN...OREGON

CITY            SKY/WX      TMP DP  RH  WIND    PRES   REMARKS
HERMISTON       CLOUDY      63  50  62  CALM    29.91R
#BOARDMAN SCHOOLN/A         70  51  51  SW2     29.91R
#BOARDMAN 8SW   N/A         71  51  49  SW7     29.88R
#ECHO 8SW       N/A         76  45  33  SW13    29.92R
#IONE SCHOOL    N/A         73  43  34  SW6     29.92R
#IRRIGON 4NW    N/A         66  54  65  E2      N/A
#UMATILLA SCHOOLN/A         61  55  81  CALM    29.95S
#UMATILLA       N/A         63  50  62  CALM    29.83R
$$

ORZ507-281410-
NORTHERN FOOTHILLS OF THE BLUES

CITY            SKY/WX      TMP DP  RH  WIND    PRES   REMARKS
PENDLETON AIRPT CLOUDY      66  41  40  SE7     29.96R
#ADAMS 3WNW     N/A         58  38  47  CALM    29.89R
#ATHENA         N/A         61  43  51  CALM    29.91R
#CAYUSE         N/A         66  43  43  E3      29.87S
#HELIX SCHOOL   N/A         58  41  53  CALM    29.89R
#HELIX 3N       N/A         64  40  41  N3      29.94R
#HOLDMAN 6E     N/A         63  42  46  N3      29.69R
#M-F GROVE ELEM N/A         73  39  29  S3      29.91S
#M-FREEWATER 5SEN/A         64  44  48  NE2     29.95R
#PENDLETON DNTN N/A         60  36  41  CALM    29.98S
#PDT AQUATIC CTRN/A         60  37  42  CALM    29.91S
#PDT SUNRIDGE   N/A         58  43  57  CALM    29.96S
#PENDLETON 7NW  N/A         61  42  50  CALM    32.07S
#TUTUILLA       N/A         64  43  46  S2      29.92R
#UMAPINE 2E     N/A         67  48  50  CALM    29.88S
#WESTON SCHOOL  N/A         69  38  32  W2      29.88R

$$

ORZ508-281410-
SOUTHERN FOOTHILLS OF THE BLUES

CITY            SKY/WX      TMP DP  RH  WIND    PRES   REMARKS
#AJAX           N/A         66  38  36  SW2     29.95R
#CONDON SCHOOL  N/A         62  42  48  CALM    29.99S
#CONDON 5W      N/A         64  41  43  W10     30.01S
#FOSSIL SCHOOL  N/A         66  51  58  CALM    29.94S
#HEPPNER EOC    N/A         64  42  45  E1      29.83S
#HEPPNER 4NE    N/A         66  42  42  SW6     29.87S
#LEXINGTON 2SE  N/A         66  45  47  SE2     29.95R
#OLEX 4N        N/A         71  45  39  W8      29.94R
#RUGGS 5NE      N/A         62  39  43  CALM    30.20S
#RUGGS 2SW      N/A         64  42  45  SW7     29.90R

$$

ORZ502-503-281410-
BLUE MOUNTAINS

CITY            SKY/WX      TMP DP  RH  WIND    PRES   REMARKS
MEACHAM         PTCLDY      47  37  68  CALM    30.07S
#HEPPNER 15SE   N/A         56  42  59  CALM    30.00S
#LONG CREEK HS  N/A         56  43  62  CALM    30.03S
#PIKES PEAK     N/A         66  40  38  SW18G25 27.99S
#TOLLGATE       N/A         57  40  53  SW1     29.96S
#TROY SCHOOL    N/A         57  45  64  CALM    29.75S
#UKIAH          N/A         48  39  71  CALM    29.96R
#WESTON 4E      N/A         64  41  43  S1      29.80R
$$

ORZ505-281410-
JOHN DAY BASIN

CITY            SKY/WX      TMP DP  RH  WIND    PRES   REMARKS
JOHN DAY        N/A         56  36  47  E7      30.09R HAZE
#JOHN DAY KJDY  N/A         52  52  100 NE1     30.16R
#MITCHELL       N/A         61  45  56  CALM    30.22S
#MITCHELL 8NW   N/A         66  41  40  CALM    30.07R
#MONUMENT HS    N/A         56  43  62  CALM    30.02R
#MT. VERNON 5SE N/A         59  38  45  CALM    30.04S
#SPRAY SCHOOL   N/A         60  N/A N/A CALM    N/A
$$

ORZ506-281410-
OCHOCO AND JOHN DAY HIGHLANDS

CITY            SKY/WX      TMP DP  RH  WIND    PRES   REMARKS
#PINE MTN OBS   N/A         55  40  57  NW2     N/A
#PRAIRIE CITY   N/A         46  40  79  CALM    30.12S
#SENECA         N/A         43  N/A N/A CALM    N/A
#SENECA 9NW     N/A         41  31  67  CALM    29.92R
$$

ORZ049-281410-
GRANDE RONDE VALLEY

CITY            SKY/WX      TMP DP  RH  WIND    PRES   REMARKS
LA GRANDE       MOCLDY      54  36  50  CALM    30.01R
#COVE           N/A         56  46  69  CALM    30.03S
#COVE SCHOOL    N/A         55  43  64  CALM    30.03S
#COVE 6NW       N/A         53  43  69  CALM    29.92R
#ELGIN 3N       N/A         54  37  52  CALM    29.99R
#ELGIN 1E       N/A         55  40  57  CALM    N/A
#ISLAND CITY 4N N/A         61  57  87  CALM    30.01S
#UNION 1S       N/A         60  41  49  CALM    29.78S
$$

ORZ050-281410-
WALLOWA COUNTY

CITY            SKY/WX      TMP DP  RH  WIND    PRES   REMARKS
#ENTERPRISE HS  N/A         51  44  77  CALM    30.05F
#IMNAHA SCHOOL  N/A         60  44  55  S1      29.96F
#IMNAHA 10S     N/A         67  41  39  S1      30.06S
#JOSEPH 3N      N/A         49  39  68  CALM    30.06F
#JOSEPH 3W      N/A         60  36  41  W2      29.91F
#LOSTINE        N/A         50  43  77  CALM    29.70S
#MT HOWARD 8000 N/A         60  29  31  S7      30.31F
#PROMISE 1S     N/A         58  40  51  CALM    29.94S
#WALLOWA SCHOOL N/A         49  44  83  CALM    29.99S



$$



USA.gov is the U.S. government's official web portal to all federal, state and local government web resources and services.